SVA6963 OERK-HAAB

Flight info

Callsign SVA6963
Flight time N/A
Altitude 40000
Route DURMA G782 JDW G650 RASKA UG650 KONET DCT EKBOB UT114 MEKEL MEKEL2A
Aircraft A333/H-SDE3GHIJ2J3J5M1RVWXY/LB2D1

Departure

Time 2026-05-07 11:03
Airport King Khalid International Airport (OERK)

Arrival

Time N/A
Airport Addis Ababa Bole International Airport (HAAB)
Time Latitude Longitude Altitude Speed Heading
2026-05-07 10:43 24.94082 46.71417 2036 ft 5 kts 240°
2026-05-07 10:52 24.94091 46.71433 2046 ft 4 kts 242°
2026-05-07 10:53 24.94103 46.71460 2041 ft 4 kts 246°
2026-05-07 10:53 24.94113 46.71487 2044 ft 4 kts 251°
2026-05-07 10:53 24.94120 46.71516 2046 ft 4 kts 264°
2026-05-07 10:53 24.94118 46.71543 2044 ft 4 kts 307°
2026-05-07 10:54 24.94113 46.71549 2044 ft 5 kts 330°
2026-05-07 10:56 24.94129 46.71539 2046 ft 7 kts 330°
2026-05-07 10:56 24.94164 46.71526 2044 ft 3 kts 359°
2026-05-07 10:56 24.94227 46.71581 2043 ft 24 kts 56°
2026-05-07 10:57 24.94324 46.71758 2045 ft 17 kts 60°
2026-05-07 10:57 24.94375 46.71797 2040 ft 4 kts 350°
2026-05-07 10:57 24.94425 46.71778 2043 ft 16 kts 332°
2026-05-07 10:57 24.94538 46.71709 2039 ft 21 kts 330°
2026-05-07 10:58 24.94687 46.71615 2045 ft 25 kts 330°
2026-05-07 10:58 24.94800 46.71642 2041 ft 15 kts 25°
2026-05-07 10:58 24.94908 46.71614 2039 ft 18 kts 330°
2026-05-07 10:58 24.95035 46.71535 2043 ft 25 kts 330°
2026-05-07 10:59 24.95200 46.71431 2045 ft 28 kts 330°
2026-05-07 10:59 24.95369 46.71324 2042 ft 28 kts 330°
2026-05-07 10:59 24.95541 46.71215 2038 ft 29 kts 330°
2026-05-07 10:59 24.95719 46.71103 2042 ft 30 kts 330°
2026-05-07 11:00 24.95898 46.70990 2042 ft 30 kts 330°
2026-05-07 11:00 24.96096 46.70864 2037 ft 36 kts 330°
2026-05-07 11:00 24.96312 46.70727 2040 ft 36 kts 330°
2026-05-07 11:00 24.96529 46.70590 2043 ft 36 kts 330°
2026-05-07 11:01 24.96746 46.70453 2038 ft 36 kts 330°
2026-05-07 11:01 24.96938 46.70332 2040 ft 31 kts 330°
2026-05-07 11:01 24.96990 46.70299 2036 ft 15 kts 330°
2026-05-07 11:01 24.97073 46.70246 2042 ft 18 kts 329°
2026-05-07 11:02 24.97295 46.70106 2041 ft 37 kts 330°
2026-05-07 11:02 24.97458 46.70147 2040 ft 18 kts 60°
2026-05-07 11:02 24.97506 46.70274 2038 ft 17 kts 95°
2026-05-07 11:02 24.97424 46.70366 2038 ft 19 kts 150°
2026-05-07 11:03 24.97168 46.70528 2040 ft 74 kts 149°
2026-05-07 11:03 24.96538 46.70928 2041 ft 135 kts 150°
2026-05-07 11:03 24.95566 46.71537 2169 ft 178 kts 147°
2026-05-07 11:03 24.94507 46.72270 2953 ft 181 kts 137°
2026-05-07 11:04 24.93567 46.73178 3752 ft 191 kts 136°
2026-05-07 11:04 24.92506 46.74185 4065 ft 213 kts 140°
2026-05-07 11:04 24.91272 46.75251 4316 ft 236 kts 141°
2026-05-07 11:04 24.90827 46.75635 4441 ft 242 kts 141°
2026-05-07 11:05 24.88824 46.76942 4993 ft 259 kts 161°
2026-05-07 11:05 24.87651 46.77201 5342 ft 263 kts 176°
2026-05-07 11:06 24.79274 46.68603 10013 ft 280 kts 240°
2026-05-07 11:07 24.78382 46.66643 10456 ft 294 kts 241°
2026-05-07 11:07 24.77436 46.64574 10765 ft 311 kts 241°
2026-05-07 11:07 24.76515 46.62343 11039 ft 329 kts 245°
2026-05-07 11:07 24.75630 46.59998 11308 ft 344 kts 246°
2026-05-07 11:08 24.74701 46.57484 11671 ft 356 kts 246°
2026-05-07 11:08 24.73772 46.54941 12172 ft 361 kts 246°
2026-05-07 11:08 24.72831 46.52356 12771 ft 364 kts 247°
2026-05-07 11:08 24.71889 46.49760 13381 ft 367 kts 247°
2026-05-07 11:09 24.70942 46.47148 13972 ft 369 kts 248°
2026-05-07 11:09 24.69987 46.44518 14510 ft 371 kts 248°
2026-05-07 11:09 24.69029 46.41876 15060 ft 374 kts 248°
2026-05-07 11:09 24.68388 46.40111 15392 ft 376 kts 248°
2026-05-07 11:10 24.67084 46.36521 16136 ft 379 kts 248°
2026-05-07 11:10 24.66103 46.33824 16672 ft 382 kts 248°
2026-05-07 11:10 24.65115 46.31106 17239 ft 383 kts 248°
2026-05-07 11:10 24.64133 46.28410 17786 ft 386 kts 248°
2026-05-07 11:11 24.63133 46.25664 18311 ft 388 kts 248°
2026-05-07 11:11 24.62127 46.22903 18746 ft 390 kts 248°
2026-05-07 11:11 24.61115 46.20129 19166 ft 393 kts 248°
2026-05-07 11:11 24.60095 46.17336 19590 ft 395 kts 248°
2026-05-07 11:12 24.59070 46.14527 20007 ft 397 kts 248°
2026-05-07 11:12 24.58039 46.11707 20429 ft 399 kts 248°
2026-05-07 11:12 24.57001 46.08871 20837 ft 401 kts 247°
2026-05-07 11:12 24.55959 46.06022 21243 ft 403 kts 247°
2026-05-07 11:13 24.54907 46.03151 21623 ft 406 kts 247°
2026-05-07 11:13 24.53849 46.00265 22033 ft 407 kts 247°
2026-05-07 11:13 24.52789 45.97375 22426 ft 410 kts 246°
2026-05-07 11:13 24.51722 45.94466 22868 ft 411 kts 246°
2026-05-07 11:14 24.50653 45.91556 23271 ft 412 kts 246°
2026-05-07 11:14 24.49577 45.88627 23620 ft 414 kts 246°
2026-05-07 11:14 24.48496 45.85689 23935 ft 416 kts 246°
2026-05-07 11:14 24.47408 45.82732 24290 ft 417 kts 246°
2026-05-07 11:15 24.46321 45.79778 24627 ft 418 kts 246°
2026-05-07 11:15 24.45202 45.76822 24997 ft 419 kts 244°
2026-05-07 11:15 24.43959 45.73926 25325 ft 420 kts 243°
2026-05-07 11:15 24.42693 45.71078 25683 ft 422 kts 243°
2026-05-07 11:16 24.41399 45.68181 26042 ft 423 kts 243°
2026-05-07 11:16 24.40106 45.65282 26401 ft 424 kts 243°
2026-05-07 11:16 24.38808 45.62372 26758 ft 425 kts 243°
2026-05-07 11:16 24.37507 45.59450 27109 ft 426 kts 243°
2026-05-07 11:17 24.36203 45.56525 27455 ft 428 kts 243°
2026-05-07 11:17 24.34894 45.53587 27786 ft 430 kts 243°
2026-05-07 11:17 24.33579 45.50637 28140 ft 431 kts 243°
2026-05-07 11:17 24.32260 45.47681 28504 ft 432 kts 243°
2026-05-07 11:18 24.30935 45.44712 28858 ft 434 kts 243°
2026-05-07 11:18 24.29606 45.41737 29204 ft 435 kts 243°
2026-05-07 11:18 24.28273 45.38754 29559 ft 437 kts 243°
2026-05-07 11:18 24.26935 45.35763 29907 ft 438 kts 243°
2026-05-07 11:19 24.25592 45.32763 30185 ft 439 kts 243°
2026-05-07 11:19 24.24247 45.29757 30434 ft 440 kts 243°
2026-05-07 11:19 24.22899 45.26750 30787 ft 439 kts 243°
2026-05-07 11:19 24.21557 45.23755 31195 ft 436 kts 243°
2026-05-07 11:20 24.20224 45.20785 31626 ft 434 kts 242°
2026-05-07 11:20 24.18897 45.17828 32004 ft 432 kts 242°
2026-05-07 11:20 24.17573 45.14880 32370 ft 431 kts 242°
2026-05-07 11:20 24.16250 45.11938 32776 ft 429 kts 242°
2026-05-07 11:21 24.14936 45.09015 33192 ft 427 kts 242°
2026-05-07 11:21 24.13627 45.06106 33601 ft 425 kts 242°
2026-05-07 11:21 24.12325 45.03216 34007 ft 423 kts 242°
2026-05-07 11:21 24.11026 45.00335 34352 ft 421 kts 242°
2026-05-07 11:22 24.09733 44.97469 34706 ft 419 kts 242°
2026-05-07 11:22 24.08443 44.94613 35075 ft 417 kts 242°
2026-05-07 11:22 24.07157 44.91767 35404 ft 416 kts 242°
2026-05-07 11:22 24.05879 44.88940 35711 ft 415 kts 242°
2026-05-07 11:23 24.04599 44.86111 36014 ft 414 kts 242°
2026-05-07 11:23 24.03325 44.83296 36324 ft 413 kts 242°
2026-05-07 11:23 24.02048 44.80479 36624 ft 412 kts 242°
2026-05-07 11:23 24.00780 44.77680 36977 ft 411 kts 242°
2026-05-07 11:24 23.99512 44.74884 37306 ft 409 kts 242°
2026-05-07 11:24 23.98248 44.72098 37567 ft 409 kts 242°
2026-05-07 11:24 23.96985 44.69316 37848 ft 409 kts 242°
2026-05-07 11:24 23.96571 44.68405 37945 ft 409 kts 242°